sat.trackr.live / text

‹ back to catalog

ONEWEB-0122

NORAD 47268 · 2020-100L

PAYLOAD ACTIVE UNKNOWN

§ Identity

Operator
Country
UK
Launch date
2020-12-18
Launch site
VOSTO
Launch vehicle
Mass (kg)
RCS (m²)

Purposes: comms

External: N2YO · Heavens-Above · Gunter

§ Orbital elements

Epoch: 2026-05-25T02:40:06.839328Z

Period
109.72 min
Inclination
87.8962°
Eccentricity
0.0001614
Mean motion
13.12441426 rev/d
Perigee alt
1,212.5 km
Apogee alt
1,215.0 km
Semi-major
7,591.9 km
B*
1.2178e-3
RAAN
355.2494°
Arg perigee
85.2126°
Mean anomaly
274.9187°
Rev number
26,152

§ Raw data

ONEWEB-01221 47268U 20100L   26145.11119027  .00000451  00000+0  12178-2 0  99902 47268  87.8962 355.2494 0001614  85.2126 274.9187 13.12441426261529

JSON: /api/v1/satellites/47268 · /tle

For live sub-satellite position, see the globe view (requires WebGL).

§ Visibility from observer

Set your observer location to see the next 7 days of passes ≥ 10°. The values pass through the URL so the page stays shareable.

No JS? Fill the form by hand. The geolocation button needs JavaScript.